owner,sensor,date,latitude,longitude,vertical_datum,sea_water_temperature,qcFlag
Anadarko,ioos:station:wmo:42399:1,2021-02-01T00:05:00Z,27.1117,-90.7640,100.6,19.3,11111222
Anadarko,ioos:station:wmo:42399:1,2021-02-01T00:25:00Z,27.1117,-90.7640,100.6,19.5,11111222
Anadarko,ioos:station:wmo:42399:1,2021-02-01T00:45:00Z,27.1117,-90.7640,100.6,19.7,11111222
Anadarko,ioos:station:wmo:42399:1,2021-02-01T01:05:00Z,27.1117,-90.7640,100.6,19.4,11111222
Anadarko,ioos:station:wmo:42399:1,2021-02-01T01:25:00Z,27.1117,-90.7640,100.6,19.4,11111222
Anadarko,ioos:station:wmo:42399:1,2021-02-01T01:44:00Z,27.1117,-90.7640,100.6,19.4,11111222
Anadarko,ioos:station:wmo:42399:1,2021-02-01T02:03:00Z,27.1117,-90.7640,100.6,19.4,11111222
Anadarko,ioos:station:wmo:42399:1,2021-02-01T02:23:00Z,27.1117,-90.7640,100.6,19.2,11111222
Anadarko,ioos:station:wmo:42399:1,2021-02-01T02:43:00Z,27.1117,-90.7640,100.6,19.1,11111222
Anadarko,ioos:station:wmo:42399:1,2021-02-01T03:03:00Z,27.1117,-90.7640,100.6,19.1,11111222
Anadarko,ioos:station:wmo:42399:1,2021-02-01T03:23:00Z,27.1117,-90.7640,100.6,19.1,11111222
Anadarko,ioos:station:wmo:42399:1,2021-02-01T03:43:00Z,27.1117,-90.7640,100.6,19.0,11111222
Anadarko,ioos:station:wmo:42399:1,2021-02-01T04:03:00Z,27.1117,-90.7640,100.6,19.0,11111222
Anadarko,ioos:station:wmo:42399:1,2021-02-01T04:23:00Z,27.1117,-90.7640,100.6,18.9,11111222
Anadarko,ioos:station:wmo:42399:1,2021-02-01T04:43:00Z,27.1117,-90.7640,100.6,19.1,11111222
Anadarko,ioos:station:wmo:42399:1,2021-02-01T05:03:00Z,27.1117,-90.7640,100.6,19.0,11111222
Anadarko,ioos:station:wmo:42399:1,2021-02-01T05:22:00Z,27.1117,-90.7640,100.6,19.1,11111222
Anadarko,ioos:station:wmo:42399:1,2021-02-01T05:41:00Z,27.1117,-90.7640,100.6,19.1,11111222
Anadarko,ioos:station:wmo:42399:1,2021-02-01T06:00:00Z,27.1117,-90.7640,100.6,19.1,11111222
Anadarko,ioos:station:wmo:42399:1,2021-02-01T06:20:00Z,27.1117,-90.7640,100.6,19.2,11111222
Anadarko,ioos:station:wmo:42399:1,2021-02-01T06:40:00Z,27.1117,-90.7640,100.6,19.3,11111222
Anadarko,ioos:station:wmo:42399:1,2021-02-01T07:00:00Z,27.1117,-90.7640,100.6,19.4,11111222
Anadarko,ioos:station:wmo:42399:1,2021-02-01T07:20:00Z,27.1117,-90.7640,100.6,19.4,11111222
Anadarko,ioos:station:wmo:42399:1,2021-02-01T07:40:00Z,27.1117,-90.7640,100.6,19.4,11111222
Anadarko,ioos:station:wmo:42399:1,2021-02-01T08:00:00Z,27.1117,-90.7640,100.6,19.4,11111222
Anadarko,ioos:station:wmo:42399:1,2021-02-01T08:20:00Z,27.1117,-90.7640,100.6,19.4,11111222
Anadarko,ioos:station:wmo:42399:1,2021-02-01T08:39:00Z,27.1117,-90.7640,100.6,19.4,11111222
Anadarko,ioos:station:wmo:42399:1,2021-02-01T08:58:00Z,27.1117,-90.7640,100.6,19.4,11111222
Anadarko,ioos:station:wmo:42399:1,2021-02-01T09:18:00Z,27.1117,-90.7640,100.6,19.4,11111222
Anadarko,ioos:station:wmo:42399:1,2021-02-01T09:38:00Z,27.1117,-90.7640,100.6,19.3,11111222
Anadarko,ioos:station:wmo:42399:1,2021-02-01T09:58:00Z,27.1117,-90.7640,100.6,19.4,11111222
Anadarko,ioos:station:wmo:42399:1,2021-02-01T10:18:00Z,27.1117,-90.7640,100.6,19.5,11111222
Anadarko,ioos:station:wmo:42399:1,2021-02-01T10:38:00Z,27.1117,-90.7640,100.6,19.6,11111222
Anadarko,ioos:station:wmo:42399:1,2021-02-01T10:58:00Z,27.1117,-90.7640,100.6,19.6,11111222
Anadarko,ioos:station:wmo:42399:1,2021-02-01T11:18:00Z,27.1117,-90.7640,100.6,19.6,11111222
Anadarko,ioos:station:wmo:42399:1,2021-02-01T11:38:00Z,27.1117,-90.7640,100.6,19.7,11111222
Anadarko,ioos:station:wmo:42399:1,2021-02-01T11:58:00Z,27.1117,-90.7640,100.6,19.7,11111222
Anadarko,ioos:station:wmo:42399:1,2021-02-01T12:18:00Z,27.1117,-90.7640,100.6,19.6,11111222
Anadarko,ioos:station:wmo:42399:1,2021-02-01T12:38:00Z,27.1117,-90.7640,100.6,19.5,11111222
Anadarko,ioos:station:wmo:42399:1,2021-02-01T12:58:00Z,27.1117,-90.7640,100.6,19.6,11111222
Anadarko,ioos:station:wmo:42399:1,2021-02-01T13:18:00Z,27.1117,-90.7640,100.6,19.5,11111222
Anadarko,ioos:station:wmo:42399:1,2021-02-01T13:38:00Z,27.1117,-90.7640,100.6,19.6,11111222
Anadarko,ioos:station:wmo:42399:1,2021-02-01T13:58:00Z,27.1117,-90.7640,100.6,19.6,11111222
Anadarko,ioos:station:wmo:42399:1,2021-02-01T14:17:00Z,27.1117,-90.7640,100.6,19.6,11111222
Anadarko,ioos:station:wmo:42399:1,2021-02-01T14:37:00Z,27.1117,-90.7640,100.6,19.7,11111222
Anadarko,ioos:station:wmo:42399:1,2021-02-01T14:57:00Z,27.1117,-90.7640,100.6,19.7,11111222
Anadarko,ioos:station:wmo:42399:1,2021-02-01T15:17:00Z,27.1117,-90.7640,100.6,19.7,11111222
Anadarko,ioos:station:wmo:42399:1,2021-02-01T15:36:00Z,27.1117,-90.7640,100.6,19.8,11111222
Anadarko,ioos:station:wmo:42399:1,2021-02-01T15:56:00Z,27.1117,-90.7640,100.6,19.8,11111222
Anadarko,ioos:station:wmo:42399:1,2021-02-01T16:16:00Z,27.1117,-90.7640,100.6,19.8,11111222
Anadarko,ioos:station:wmo:42399:1,2021-02-01T16:35:00Z,27.1117,-90.7640,100.6,19.7,11111222
Anadarko,ioos:station:wmo:42399:1,2021-02-01T16:55:00Z,27.1117,-90.7640,100.6,19.6,11111222
Anadarko,ioos:station:wmo:42399:1,2021-02-01T17:14:00Z,27.1117,-90.7640,100.6,19.6,11111222
Anadarko,ioos:station:wmo:42399:1,2021-02-01T17:34:00Z,27.1117,-90.7640,100.6,19.5,11111222
Anadarko,ioos:station:wmo:42399:1,2021-02-01T17:54:00Z,27.1117,-90.7640,100.6,19.4,11111222
Anadarko,ioos:station:wmo:42399:1,2021-02-01T18:14:00Z,27.1117,-90.7640,100.6,19.4,11111222
Anadarko,ioos:station:wmo:42399:1,2021-02-01T18:34:00Z,27.1117,-90.7640,100.6,19.4,11111222
Anadarko,ioos:station:wmo:42399:1,2021-02-01T18:53:00Z,27.1117,-90.7640,100.6,19.6,11111222
Anadarko,ioos:station:wmo:42399:1,2021-02-01T19:13:00Z,27.1117,-90.7640,100.6,19.7,11111222
Anadarko,ioos:station:wmo:42399:1,2021-02-01T19:33:00Z,27.1117,-90.7640,100.6,19.6,11111222
Anadarko,ioos:station:wmo:42399:1,2021-02-01T19:53:00Z,27.1117,-90.7640,100.6,19.6,11111222
Anadarko,ioos:station:wmo:42399:1,2021-02-01T20:12:00Z,27.1117,-90.7640,100.6,19.6,11111222
Anadarko,ioos:station:wmo:42399:1,2021-02-01T20:32:00Z,27.1117,-90.7640,100.6,19.7,11111222
Anadarko,ioos:station:wmo:42399:1,2021-02-01T20:51:00Z,27.1117,-90.7640,100.6,19.6,11111222
Anadarko,ioos:station:wmo:42399:1,2021-02-01T21:10:00Z,27.1117,-90.7640,100.6,19.6,11111222
Anadarko,ioos:station:wmo:42399:1,2021-02-01T21:30:00Z,27.1117,-90.7640,100.6,19.5,11111222
Anadarko,ioos:station:wmo:42399:1,2021-02-01T21:50:00Z,27.1117,-90.7640,100.6,19.5,11111222
Anadarko,ioos:station:wmo:42399:1,2021-02-01T22:10:00Z,27.1117,-90.7640,100.6,19.5,11111222
Anadarko,ioos:station:wmo:42399:1,2021-02-01T22:30:00Z,27.1117,-90.7640,100.6,19.5,11111222
Anadarko,ioos:station:wmo:42399:1,2021-02-01T22:50:00Z,27.1117,-90.7640,100.6,19.5,11111222
Anadarko,ioos:station:wmo:42399:1,2021-02-01T23:09:00Z,27.1117,-90.7640,100.6,19.5,11111222
Anadarko,ioos:station:wmo:42399:1,2021-02-01T23:29:00Z,27.1117,-90.7640,100.6,19.4,11111222
Anadarko,ioos:station:wmo:42399:1,2021-02-01T23:49:00Z,27.1117,-90.7640,100.6,19.5,11111222
Anadarko,ioos:station:wmo:42399:1,2021-02-02T00:09:00Z,27.1117,-90.7640,100.6,19.5,11111222
Anadarko,ioos:station:wmo:42399:1,2021-02-02T00:29:00Z,27.1117,-90.7640,100.6,19.5,11111222
Anadarko,ioos:station:wmo:42399:1,2021-02-02T00:49:00Z,27.1117,-90.7640,100.6,19.3,11111222
Anadarko,ioos:station:wmo:42399:1,2021-02-02T01:09:00Z,27.1117,-90.7640,100.6,19.3,11111222
Anadarko,ioos:station:wmo:42399:1,2021-02-02T01:28:00Z,27.1117,-90.7640,100.6,19.4,11111222
Anadarko,ioos:station:wmo:42399:1,2021-02-02T01:48:00Z,27.1117,-90.7640,100.6,19.2,11111222
Anadarko,ioos:station:wmo:42399:1,2021-02-02T02:08:00Z,27.1117,-90.7640,100.6,19.1,11111222
Anadarko,ioos:station:wmo:42399:1,2021-02-02T02:28:00Z,27.1117,-90.7640,100.6,19.1,11111222
Anadarko,ioos:station:wmo:42399:1,2021-02-02T02:48:00Z,27.1117,-90.7640,100.6,19.3,11111222
Anadarko,ioos:station:wmo:42399:1,2021-02-02T03:08:00Z,27.1117,-90.7640,100.6,19.4,11111222
Anadarko,ioos:station:wmo:42399:1,2021-02-02T03:28:00Z,27.1117,-90.7640,100.6,19.4,11111222
Anadarko,ioos:station:wmo:42399:1,2021-02-02T03:48:00Z,27.1117,-90.7640,100.6,19.4,11111222
Anadarko,ioos:station:wmo:42399:1,2021-02-02T04:08:00Z,27.1117,-90.7640,100.6,19.4,11111222
Anadarko,ioos:station:wmo:42399:1,2021-02-02T04:28:00Z,27.1117,-90.7640,100.6,19.4,11111222
Anadarko,ioos:station:wmo:42399:1,2021-02-02T04:48:00Z,27.1117,-90.7640,100.6,19.3,11111222
Anadarko,ioos:station:wmo:42399:1,2021-02-02T05:08:00Z,27.1117,-90.7640,100.6,19.3,11111222
Anadarko,ioos:station:wmo:42399:1,2021-02-02T05:28:00Z,27.1117,-90.7640,100.6,19.3,11111222
Anadarko,ioos:station:wmo:42399:1,2021-02-02T05:48:00Z,27.1117,-90.7640,100.6,19.4,11111222
Anadarko,ioos:station:wmo:42399:1,2021-02-02T06:08:00Z,27.1117,-90.7640,100.6,19.4,11111222
Anadarko,ioos:station:wmo:42399:1,2021-02-02T06:28:00Z,27.1117,-90.7640,100.6,19.5,11111222
Anadarko,ioos:station:wmo:42399:1,2021-02-02T06:48:00Z,27.1117,-90.7640,100.6,19.6,11111222
Anadarko,ioos:station:wmo:42399:1,2021-02-02T07:08:00Z,27.1117,-90.7640,100.6,19.5,11111222
Anadarko,ioos:station:wmo:42399:1,2021-02-02T07:28:00Z,27.1117,-90.7640,100.6,19.5,11111222
Anadarko,ioos:station:wmo:42399:1,2021-02-02T07:48:00Z,27.1117,-90.7640,100.6,19.5,11111222
Anadarko,ioos:station:wmo:42399:1,2021-02-02T08:08:00Z,27.1117,-90.7640,100.6,19.6,11111222
Anadarko,ioos:station:wmo:42399:1,2021-02-02T08:28:00Z,27.1117,-90.7640,100.6,19.6,11111222
Anadarko,ioos:station:wmo:42399:1,2021-02-02T08:48:00Z,27.1117,-90.7640,100.6,19.6,11111222
Anadarko,ioos:station:wmo:42399:1,2021-02-02T09:08:00Z,27.1117,-90.7640,100.6,19.9,11111222
Anadarko,ioos:station:wmo:42399:1,2021-02-02T09:28:00Z,27.1117,-90.7640,100.6,19.7,11111222
Anadarko,ioos:station:wmo:42399:1,2021-02-02T09:48:00Z,27.1117,-90.7640,100.6,19.9,11111222
Anadarko,ioos:station:wmo:42399:1,2021-02-02T10:08:00Z,27.1117,-90.7640,100.6,19.7,11111222
Anadarko,ioos:station:wmo:42399:1,2021-02-02T10:28:00Z,27.1117,-90.7640,100.6,19.8,11111222
Anadarko,ioos:station:wmo:42399:1,2021-02-02T10:48:00Z,27.1117,-90.7640,100.6,19.7,11111222
Anadarko,ioos:station:wmo:42399:1,2021-02-02T11:08:00Z,27.1117,-90.7640,100.6,19.7,11111222
Anadarko,ioos:station:wmo:42399:1,2021-02-02T11:28:00Z,27.1117,-90.7640,100.6,19.6,11111222
Anadarko,ioos:station:wmo:42399:1,2021-02-02T11:47:00Z,27.1117,-90.7640,100.6,19.5,11111222
Anadarko,ioos:station:wmo:42399:1,2021-02-02T12:07:00Z,27.1117,-90.7640,100.6,19.5,11111222
Anadarko,ioos:station:wmo:42399:1,2021-02-02T12:27:00Z,27.1117,-90.7640,100.6,19.5,11111222
Anadarko,ioos:station:wmo:42399:1,2021-02-02T12:46:00Z,27.1117,-90.7640,100.6,19.5,11111222
Anadarko,ioos:station:wmo:42399:1,2021-02-02T13:06:00Z,27.1117,-90.7640,100.6,19.5,11111222
Anadarko,ioos:station:wmo:42399:1,2021-02-02T13:25:00Z,27.1117,-90.7640,100.6,19.4,11111222
Anadarko,ioos:station:wmo:42399:1,2021-02-02T13:45:00Z,27.1117,-90.7640,100.6,19.4,11111222
Anadarko,ioos:station:wmo:42399:1,2021-02-02T14:04:00Z,27.1117,-90.7640,100.6,19.3,11111222
Anadarko,ioos:station:wmo:42399:1,2021-02-02T14:24:00Z,27.1117,-90.7640,100.6,19.3,11111222
Anadarko,ioos:station:wmo:42399:1,2021-02-02T14:44:00Z,27.1117,-90.7640,100.6,19.3,11111222
Anadarko,ioos:station:wmo:42399:1,2021-02-02T15:04:00Z,27.1117,-90.7640,100.6,19.3,11111222
Anadarko,ioos:station:wmo:42399:1,2021-02-02T15:24:00Z,27.1117,-90.7640,100.6,19.2,11111222
Anadarko,ioos:station:wmo:42399:1,2021-02-02T15:43:00Z,27.1117,-90.7640,100.6,19.1,11111222
Anadarko,ioos:station:wmo:42399:1,2021-02-02T16:02:00Z,27.1117,-90.7640,100.6,19.1,11111222
Anadarko,ioos:station:wmo:42399:1,2021-02-02T16:21:00Z,27.1117,-90.7640,100.6,19.1,11111222
Anadarko,ioos:station:wmo:42399:1,2021-02-02T16:41:00Z,27.1117,-90.7640,100.6,19.2,11111222
Anadarko,ioos:station:wmo:42399:1,2021-02-02T17:01:00Z,27.1117,-90.7640,100.6,19.3,11111222
Anadarko,ioos:station:wmo:42399:1,2021-02-02T17:21:00Z,27.1117,-90.7640,100.6,19.3,11111222
Anadarko,ioos:station:wmo:42399:1,2021-02-02T17:41:00Z,27.1117,-90.7640,100.6,19.2,11111222
Anadarko,ioos:station:wmo:42399:1,2021-02-02T18:01:00Z,27.1117,-90.7640,100.6,19.3,11111222
Anadarko,ioos:station:wmo:42399:1,2021-02-02T18:20:00Z,27.1117,-90.7640,100.6,19.5,11111222
Anadarko,ioos:station:wmo:42399:1,2021-02-02T18:40:00Z,27.1117,-90.7640,100.6,19.4,11111222
Anadarko,ioos:station:wmo:42399:1,2021-02-02T19:00:00Z,27.1117,-90.7640,100.6,19.1,11111222
Anadarko,ioos:station:wmo:42399:1,2021-02-02T19:20:00Z,27.1117,-90.7640,100.6,19.2,11111222
Anadarko,ioos:station:wmo:42399:1,2021-02-02T19:40:00Z,27.1117,-90.7640,100.6,19.0,11111222
Anadarko,ioos:station:wmo:42399:1,2021-02-02T20:00:00Z,27.1117,-90.7640,100.6,19.1,11111222
Anadarko,ioos:station:wmo:42399:1,2021-02-02T20:20:00Z,27.1117,-90.7640,100.6,19.6,11111222
Anadarko,ioos:station:wmo:42399:1,2021-02-02T20:40:00Z,27.1117,-90.7640,100.6,19.6,11111222
Anadarko,ioos:station:wmo:42399:1,2021-02-02T21:00:00Z,27.1117,-90.7640,100.6,19.2,11111222
Anadarko,ioos:station:wmo:42399:1,2021-02-02T21:20:00Z,27.1117,-90.7640,100.6,19.4,11111222
Anadarko,ioos:station:wmo:42399:1,2021-02-02T21:40:00Z,27.1117,-90.7640,100.6,19.5,11111222
Anadarko,ioos:station:wmo:42399:1,2021-02-02T22:00:00Z,27.1117,-90.7640,100.6,19.6,11111222
Anadarko,ioos:station:wmo:42399:1,2021-02-02T22:20:00Z,27.1117,-90.7640,100.6,19.6,11111222
Anadarko,ioos:station:wmo:42399:1,2021-02-02T22:40:00Z,27.1117,-90.7640,100.6,19.6,11111222
Anadarko,ioos:station:wmo:42399:1,2021-02-02T23:00:00Z,27.1117,-90.7640,100.6,19.8,11111222
Anadarko,ioos:station:wmo:42399:1,2021-02-02T23:20:00Z,27.1117,-90.7640,100.6,19.9,11111222
Anadarko,ioos:station:wmo:42399:1,2021-02-02T23:40:00Z,27.1117,-90.7640,100.6,20.0,11111222
Anadarko,ioos:station:wmo:42399:1,2021-02-03T00:00:00Z,27.1117,-90.7640,100.6,19.9,11111222
Anadarko,ioos:station:wmo:42399:1,2021-02-03T00:20:00Z,27.1117,-90.7640,100.6,20.0,11111222
Anadarko,ioos:station:wmo:42399:1,2021-02-03T00:40:00Z,27.1117,-90.7640,100.6,20.0,11111222
Anadarko,ioos:station:wmo:42399:1,2021-02-03T00:59:00Z,27.1117,-90.7640,100.6,19.9,11111222
Anadarko,ioos:station:wmo:42399:1,2021-02-03T01:19:00Z,27.1117,-90.7640,100.6,19.9,11111222
Anadarko,ioos:station:wmo:42399:1,2021-02-03T01:39:00Z,27.1117,-90.7640,100.6,19.8,11111222
Anadarko,ioos:station:wmo:42399:1,2021-02-03T01:59:00Z,27.1117,-90.7640,100.6,19.9,11111222
Anadarko,ioos:station:wmo:42399:1,2021-02-03T02:19:00Z,27.1117,-90.7640,100.6,19.7,11111222
Anadarko,ioos:station:wmo:42399:1,2021-02-03T02:38:00Z,27.1117,-90.7640,100.6,19.7,11111222
Anadarko,ioos:station:wmo:42399:1,2021-02-03T02:58:00Z,27.1117,-90.7640,100.6,19.6,11111222
Anadarko,ioos:station:wmo:42399:1,2021-02-03T03:18:00Z,27.1117,-90.7640,100.6,19.6,11111222
Anadarko,ioos:station:wmo:42399:1,2021-02-03T03:37:00Z,27.1117,-90.7640,100.6,19.3,11111222
Anadarko,ioos:station:wmo:42399:1,2021-02-03T03:56:00Z,27.1117,-90.7640,100.6,19.3,11111222
Anadarko,ioos:station:wmo:42399:1,2021-02-03T04:15:00Z,27.1117,-90.7640,100.6,19.3,11111222
Anadarko,ioos:station:wmo:42399:1,2021-02-03T04:35:00Z,27.1117,-90.7640,100.6,19.2,11111222
Anadarko,ioos:station:wmo:42399:1,2021-02-03T04:55:00Z,27.1117,-90.7640,100.6,19.1,11111222
Anadarko,ioos:station:wmo:42399:1,2021-02-03T05:14:00Z,27.1117,-90.7640,100.6,19.3,11111222
Anadarko,ioos:station:wmo:42399:1,2021-02-03T05:34:00Z,27.1117,-90.7640,100.6,19.2,11111222
Anadarko,ioos:station:wmo:42399:1,2021-02-03T05:53:00Z,27.1117,-90.7640,100.6,19.4,11111222
Anadarko,ioos:station:wmo:42399:1,2021-02-03T06:13:00Z,27.1117,-90.7640,100.6,19.6,11111222
Anadarko,ioos:station:wmo:42399:1,2021-02-03T06:33:00Z,27.1117,-90.7640,100.6,19.7,11111222
Anadarko,ioos:station:wmo:42399:1,2021-02-03T06:53:00Z,27.1117,-90.7640,100.6,19.7,11111222
Anadarko,ioos:station:wmo:42399:1,2021-02-03T07:12:00Z,27.1117,-90.7640,100.6,19.7,11111222
Anadarko,ioos:station:wmo:42399:1,2021-02-03T07:32:00Z,27.1117,-90.7640,100.6,19.9,11111222
Anadarko,ioos:station:wmo:42399:1,2021-02-03T07:52:00Z,27.1117,-90.7640,100.6,19.9,11111222
Anadarko,ioos:station:wmo:42399:1,2021-02-03T08:12:00Z,27.1117,-90.7640,100.6,20.0,11111222
Anadarko,ioos:station:wmo:42399:1,2021-02-03T08:31:00Z,27.1117,-90.7640,100.6,19.8,11111222
Anadarko,ioos:station:wmo:42399:1,2021-02-03T08:51:00Z,27.1117,-90.7640,100.6,19.7,11111222
Anadarko,ioos:station:wmo:42399:1,2021-02-03T09:11:00Z,27.1117,-90.7640,100.6,19.6,11111222
Anadarko,ioos:station:wmo:42399:1,2021-02-03T09:30:00Z,27.1117,-90.7640,100.6,19.6,11111222
Anadarko,ioos:station:wmo:42399:1,2021-02-03T09:50:00Z,27.1117,-90.7640,100.6,19.6,11111222
Anadarko,ioos:station:wmo:42399:1,2021-02-03T10:09:00Z,27.1117,-90.7640,100.6,19.6,11111222
Anadarko,ioos:station:wmo:42399:1,2021-02-03T10:29:00Z,27.1117,-90.7640,100.6,19.5,11111222
Anadarko,ioos:station:wmo:42399:1,2021-02-03T10:49:00Z,27.1117,-90.7640,100.6,19.4,11111222
Anadarko,ioos:station:wmo:42399:1,2021-02-03T11:09:00Z,27.1117,-90.7640,100.6,19.3,11111222
Anadarko,ioos:station:wmo:42399:1,2021-02-03T11:29:00Z,27.1117,-90.7640,100.6,19.3,11111222
Anadarko,ioos:station:wmo:42399:1,2021-02-03T11:48:00Z,27.1117,-90.7640,100.6,19.2,11111222
Anadarko,ioos:station:wmo:42399:1,2021-02-03T12:08:00Z,27.1117,-90.7640,100.6,19.3,11111222
Anadarko,ioos:station:wmo:42399:1,2021-02-03T12:28:00Z,27.1117,-90.7640,100.6,19.2,11111222
Anadarko,ioos:station:wmo:42399:1,2021-02-03T12:47:00Z,27.1117,-90.7640,100.6,19.2,11111222
Anadarko,ioos:station:wmo:42399:1,2021-02-03T13:07:00Z,27.1117,-90.7640,100.6,19.1,11111222
Anadarko,ioos:station:wmo:42399:1,2021-02-03T13:27:00Z,27.1117,-90.7640,100.6,18.9,11111222
Anadarko,ioos:station:wmo:42399:1,2021-02-03T13:46:00Z,27.1117,-90.7640,100.6,19.0,11111222
Anadarko,ioos:station:wmo:42399:1,2021-02-03T14:06:00Z,27.1117,-90.7640,100.6,18.9,11111222
Anadarko,ioos:station:wmo:42399:1,2021-02-03T14:26:00Z,27.1117,-90.7640,100.6,19.0,11111222
Anadarko,ioos:station:wmo:42399:1,2021-02-03T14:46:00Z,27.1117,-90.7640,100.6,19.0,11111222
Anadarko,ioos:station:wmo:42399:1,2021-02-03T15:06:00Z,27.1117,-90.7640,100.6,19.1,11111222
Anadarko,ioos:station:wmo:42399:1,2021-02-03T15:26:00Z,27.1117,-90.7640,100.6,19.1,11111222
Anadarko,ioos:station:wmo:42399:1,2021-02-03T15:46:00Z,27.1117,-90.7640,100.6,19.3,11111222
Anadarko,ioos:station:wmo:42399:1,2021-02-03T16:05:00Z,27.1117,-90.7640,100.6,19.5,11111222
Anadarko,ioos:station:wmo:42399:1,2021-02-03T16:25:00Z,27.1117,-90.7640,100.6,19.5,11111222
Anadarko,ioos:station:wmo:42399:1,2021-02-03T16:45:00Z,27.1117,-90.7640,100.6,19.4,11111222
Anadarko,ioos:station:wmo:42399:1,2021-02-03T17:05:00Z,27.1117,-90.7640,100.6,19.4,11111222
Anadarko,ioos:station:wmo:42399:1,2021-02-03T17:25:00Z,27.1117,-90.7640,100.6,19.5,11111222
Anadarko,ioos:station:wmo:42399:1,2021-02-03T17:45:00Z,27.1117,-90.7640,100.6,19.3,11111222
Anadarko,ioos:station:wmo:42399:1,2021-02-03T18:05:00Z,27.1117,-90.7640,100.6,19.4,11111222
Anadarko,ioos:station:wmo:42399:1,2021-02-03T18:25:00Z,27.1117,-90.7640,100.6,19.3,11111222
Anadarko,ioos:station:wmo:42399:1,2021-02-03T18:45:00Z,27.1117,-90.7640,100.6,19.1,11111222
Anadarko,ioos:station:wmo:42399:1,2021-02-03T19:05:00Z,27.1117,-90.7640,100.6,19.3,11111222
Anadarko,ioos:station:wmo:42399:1,2021-02-03T19:25:00Z,27.1117,-90.7640,100.6,19.4,11111222
Anadarko,ioos:station:wmo:42399:1,2021-02-03T19:45:00Z,27.1117,-90.7640,100.6,19.6,11111222
Anadarko,ioos:station:wmo:42399:1,2021-02-03T20:05:00Z,27.1117,-90.7640,100.6,19.7,11111222
Anadarko,ioos:station:wmo:42399:1,2021-02-03T20:25:00Z,27.1117,-90.7640,100.6,19.7,11111222
Anadarko,ioos:station:wmo:42399:1,2021-02-03T20:44:00Z,27.1117,-90.7640,100.6,19.5,11111222
Anadarko,ioos:station:wmo:42399:1,2021-02-03T21:04:00Z,27.1117,-90.7640,100.6,19.5,11111222
Anadarko,ioos:station:wmo:42399:1,2021-02-03T21:24:00Z,27.1117,-90.7640,100.6,19.4,11111222
Anadarko,ioos:station:wmo:42399:1,2021-02-03T21:44:00Z,27.1117,-90.7640,100.6,19.4,11111222
Anadarko,ioos:station:wmo:42399:1,2021-02-03T22:04:00Z,27.1117,-90.7640,100.6,19.4,11111222
Anadarko,ioos:station:wmo:42399:1,2021-02-03T22:24:00Z,27.1117,-90.7640,100.6,19.5,11111222
Anadarko,ioos:station:wmo:42399:1,2021-02-03T22:44:00Z,27.1117,-90.7640,100.6,19.4,11111222
Anadarko,ioos:station:wmo:42399:1,2021-02-03T23:04:00Z,27.1117,-90.7640,100.6,19.4,11111222
Anadarko,ioos:station:wmo:42399:1,2021-02-03T23:23:00Z,27.1117,-90.7640,100.6,19.4,11111222
Anadarko,ioos:station:wmo:42399:1,2021-02-03T23:43:00Z,27.1117,-90.7640,100.6,19.4,11111222
Anadarko,ioos:station:wmo:42399:1,2021-02-04T00:03:00Z,27.1117,-90.7640,100.6,19.4,11111222
Anadarko,ioos:station:wmo:42399:1,2021-02-04T00:23:00Z,27.1117,-90.7640,100.6,19.4,11111222
Anadarko,ioos:station:wmo:42399:1,2021-02-04T00:43:00Z,27.1117,-90.7640,100.6,19.4,11111222
Anadarko,ioos:station:wmo:42399:1,2021-02-04T01:03:00Z,27.1117,-90.7640,100.6,19.4,11111222
Anadarko,ioos:station:wmo:42399:1,2021-02-04T01:23:00Z,27.1117,-90.7640,100.6,19.4,11111222
Anadarko,ioos:station:wmo:42399:1,2021-02-04T01:43:00Z,27.1117,-90.7640,100.6,19.3,11111222
Anadarko,ioos:station:wmo:42399:1,2021-02-04T02:03:00Z,27.1117,-90.7640,100.6,19.3,11111222
Anadarko,ioos:station:wmo:42399:1,2021-02-04T02:23:00Z,27.1117,-90.7640,100.6,19.3,11111222
Anadarko,ioos:station:wmo:42399:1,2021-02-04T02:43:00Z,27.1117,-90.7640,100.6,19.3,11111222
Anadarko,ioos:station:wmo:42399:1,2021-02-04T03:03:00Z,27.1117,-90.7640,100.6,19.3,11111222
Anadarko,ioos:station:wmo:42399:1,2021-02-04T03:23:00Z,27.1117,-90.7640,100.6,19.3,11111222
Anadarko,ioos:station:wmo:42399:1,2021-02-04T03:42:00Z,27.1117,-90.7640,100.6,19.3,11111222
Anadarko,ioos:station:wmo:42399:1,2021-02-04T04:02:00Z,27.1117,-90.7640,100.6,19.4,11111222
Anadarko,ioos:station:wmo:42399:1,2021-02-04T04:22:00Z,27.1117,-90.7640,100.6,19.4,11111222
Anadarko,ioos:station:wmo:42399:1,2021-02-04T04:42:00Z,27.1117,-90.7640,100.6,19.4,11111222
Anadarko,ioos:station:wmo:42399:1,2021-02-04T05:02:00Z,27.1117,-90.7640,100.6,19.2,11111222
Anadarko,ioos:station:wmo:42399:1,2021-02-04T05:22:00Z,27.1117,-90.7640,100.6,19.4,11111222
Anadarko,ioos:station:wmo:42399:1,2021-02-04T05:42:00Z,27.1117,-90.7640,100.6,19.4,11111222
Anadarko,ioos:station:wmo:42399:1,2021-02-04T06:02:00Z,27.1117,-90.7640,100.6,19.3,11111222
Anadarko,ioos:station:wmo:42399:1,2021-02-04T06:21:00Z,27.1117,-90.7640,100.6,19.1,11111222
Anadarko,ioos:station:wmo:42399:1,2021-02-04T06:41:00Z,27.1117,-90.7640,100.6,18.8,11111222
Anadarko,ioos:station:wmo:42399:1,2021-02-04T07:01:00Z,27.1117,-90.7640,100.6,19.1,11111222
Anadarko,ioos:station:wmo:42399:1,2021-02-04T07:21:00Z,27.1117,-90.7640,100.6,19.1,11111222
Anadarko,ioos:station:wmo:42399:1,2021-02-04T07:41:00Z,27.1117,-90.7640,100.6,19.3,11111222
Anadarko,ioos:station:wmo:42399:1,2021-02-04T08:01:00Z,27.1117,-90.7640,100.6,19.4,11111222
Anadarko,ioos:station:wmo:42399:1,2021-02-04T08:20:00Z,27.1117,-90.7640,100.6,19.4,11111222
Anadarko,ioos:station:wmo:42399:1,2021-02-04T08:40:00Z,27.1117,-90.7640,100.6,19.4,11111222
Anadarko,ioos:station:wmo:42399:1,2021-02-04T09:00:00Z,27.1117,-90.7640,100.6,19.4,11111222
Anadarko,ioos:station:wmo:42399:1,2021-02-04T09:20:00Z,27.1117,-90.7640,100.6,19.4,11111222
Anadarko,ioos:station:wmo:42399:1,2021-02-04T09:40:00Z,27.1117,-90.7640,100.6,19.4,11111222
Anadarko,ioos:station:wmo:42399:1,2021-02-04T10:00:00Z,27.1117,-90.7640,100.6,19.4,11111222
Anadarko,ioos:station:wmo:42399:1,2021-02-04T10:20:00Z,27.1117,-90.7640,100.6,19.2,11111222
Anadarko,ioos:station:wmo:42399:1,2021-02-04T10:40:00Z,27.1117,-90.7640,100.6,19.0,11111222
Anadarko,ioos:station:wmo:42399:1,2021-02-04T11:00:00Z,27.1117,-90.7640,100.6,18.9,11111222
Anadarko,ioos:station:wmo:42399:1,2021-02-04T11:20:00Z,27.1117,-90.7640,100.6,18.9,11111222
Anadarko,ioos:station:wmo:42399:1,2021-02-04T11:40:00Z,27.1117,-90.7640,100.6,19.0,11111222
Anadarko,ioos:station:wmo:42399:1,2021-02-04T12:00:00Z,27.1117,-90.7640,100.6,19.1,11111222
Anadarko,ioos:station:wmo:42399:1,2021-02-04T12:20:00Z,27.1117,-90.7640,100.6,19.3,11111222
Anadarko,ioos:station:wmo:42399:1,2021-02-04T12:40:00Z,27.1117,-90.7640,100.6,19.7,11111222